| time (UTC) | temp F | wind direction | speed knots | gust knots | rain 1hr in | rain 24hr in | rain mn in | humidity % | barometer mb |
| 20260905174557 | 58 | 246 | 0.9 | 6.1 | 0.00 | 0.15 | 0.06 | 90 | 1018.0 |
| 20260905173100 | 59 | 260 | 0.0 | 3.5 | 0.00 | 0.15 | 0.06 | 92 | 1017.8 |
| 20260905171548 | 59 | 173 | 0.0 | 3.5 | 0.00 | 0.15 | 0.06 | 92 | 1017.8 |
| 20260905170049 | 59 | 287 | 0.0 | 2.6 | 0.00 | 0.15 | 0.06 | 92 | 1017.6 |
| 20260905164546 | 59 | 253 | 0.9 | 3.5 | 0.00 | 0.15 | 0.06 | 93 | 1017.4 |
| 20260905163051 | 60 | 256 | 0.0 | 6.1 | 0.00 | 0.15 | 0.06 | 93 | 1017.3 |
| 20260905160036 | 59 | 315 | 0.0 | 3.5 | 0.00 | 0.15 | 0.06 | 93 | 1016.9 |
| 20260905154517 | 59 | 267 | 0.0 | 4.3 | 0.02 | 0.15 | 0.06 | 93 | 1016.8 |
| 20260905153016 | 59 | 297 | 0.9 | 6.1 | 0.05 | 0.15 | 0.06 | 92 | 1016.7 |
| 20260905151515 | 58 | 244 | 2.6 | 6.1 | 0.05 | 0.15 | 0.06 | 91 | 1016.6 |
| 20260905150023 | 58 | 302 | 3.5 | 13.0 | 0.05 | 0.15 | 0.06 | 87 | 1016.7 |
| 20260905144536 | 61 | 265 | 5.2 | 16.5 | 0.02 | 0.39 | 0.04 | 80 | 1017.0 |
| 20260905143019 | 64 | 252 | 6.1 | 18.2 | 0.00 | 0.37 | 0.02 | 72 | 1016.6 |
| 20260905141510 | 66 | 186 | 4.3 | 13.0 | 0.01 | 0.37 | 0.02 | 69 | 1015.4 |
| 20260905140008 | 66 | 281 | 2.6 | 8.7 | 0.01 | 0.37 | 0.02 | 77 | 1015.2 |
| 20260905134513 | 67 | 266 | 1.7 | 9.6 | 0.01 | 0.37 | 0.02 | 73 | 1015.2 |
| 20260905133009 | 66 | 244 | 2.6 | 7.8 | 0.01 | 0.37 | 0.02 | 76 | 1015.3 |
| 20260905131507 | 67 | 297 | 3.5 | 12.2 | 0.00 | 0.36 | 0.01 | 70 | 1015.5 |
| 20260905130004 | 71 | 192 | 1.7 | 12.2 | 0.00 | 0.36 | 0.01 | 62 | 1014.9 |
| 20260905124502 | 69 | 265 | 2.6 | 7.0 | 0.00 | 0.36 | 0.01 | 67 | 1014.8 |
| 20260905123002 | 68 | 308 | 2.6 | 7.0 | 0.00 | 0.36 | 0.01 | 67 | 1015.0 |
| 20260905121501 | 66 | 249 | 2.6 | 8.7 | 0.00 | 0.36 | 0.01 | 69 | 1015.2 |
| 20260905120101 | 68 | 275 | 2.6 | 14.8 | 0.00 | 0.36 | 0.01 | 66 | 1015.2 |
| 20260905120002 | 68 | 167 | 2.6 | 14.8 | 0.00 | 0.36 | 0.01 | 66 | 1015.3 |
| 20260905114630 | 69 | 198 | 1.7 | 7.8 | 0.00 | 0.36 | 0.01 | 67 | 1015.1 |
| 20260905113100 | 69 | 123 | 3.5 | 12.2 | 0.00 | 0.36 | 0.01 | 64 | 1015.3 |
| 20260905111557 | 69 | 186 | 1.7 | 16.5 | 0.00 | 0.36 | 0.01 | 66 | 1015.1 |
| 20260905110054 | 71 | 223 | 3.5 | 17.4 | 0.00 | 0.36 | 0.01 | 62 | 1014.9 |
| 20260905104554 | 70 | 121 | 2.6 | 9.6 | 0.00 | 0.36 | 0.01 | 62 | 1015.0 |
| 20260905103053 | 70 | 318 | 1.7 | 10.4 | 0.00 | 0.36 | 0.01 | 63 | 1015.1 |
| 20260905101548 | 66 | 211 | 3.5 | 7.8 | 0.00 | 0.36 | 0.01 | 70 | 1015.3 |
| 20260905100106 | 66 | 81 | 0.0 | 8.7 | 0.00 | 0.36 | 0.01 | 76 | 1015.1 |
| 20260905094550 | 67 | 306 | 2.6 | 7.0 | 0.00 | 0.36 | 0.01 | 69 | 1015.2 |
| 20260905093044 | 67 | 23 | 2.6 | 10.4 | 0.00 | 0.36 | 0.01 | 68 | 1015.3 |
| 20260905091555 | 66 | 239 | 2.6 | 9.6 | 0.00 | 0.36 | 0.01 | 70 | 1015.1 |
| 20260905090040 | 68 | 263 | 2.6 | 8.7 | 0.00 | 0.36 | 0.01 | 69 | 1015.1 |
| 20260905084538 | 67 | 304 | 1.7 | 10.4 | 0.00 | 0.36 | 0.01 | 71 | 1015.1 |
| 20260905083034 | 66 | 227 | 3.5 | 7.8 | 0.00 | 0.36 | 0.01 | 74 | 1015.0 |
| 20260905081531 | 65 | 165 | 1.7 | 8.7 | 0.00 | 0.36 | 0.01 | 78 | 1014.9 |
| 20260905080030 | 65 | 209 | 3.5 | 10.4 | 0.01 | 0.36 | 0.01 | 78 | 1014.9 |
| 20260905074534 | 64 | 201 | 0.9 | 5.2 | 0.01 | 0.37 | 0.01 | 81 | 1014.6 |
| 20260905073032 | 63 | 283 | 1.7 | 11.3 | 0.01 | 0.37 | 0.01 | 83 | 1014.5 |
| 20260905071524 | 62 | 254 | 3.5 | 7.0 | 0.00 | 0.36 | 0.00 | 84 | 1014.4 |
| 20260905070014 | 62 | 256 | 0.9 | 9.6 | 0.00 | 0.36 | 0.00 | 86 | 1014.3 |
| 20260905064513 | 61 | 227 | 1.7 | 9.6 | 0.00 | 0.36 | 0.00 | 87 | 1014.2 |
| 20260905063006 | 60 | 296 | 1.7 | 7.8 | 0.00 | 0.36 | 0.00 | 90 | 1014.1 |
| 20260905061502 | 59 | 249 | 0.0 | 4.3 | 0.00 | 0.36 | 0.00 | 92 | 1014.0 |
| 20260905054601 | 57 | 294 | 0.9 | 4.3 | 0.00 | 0.36 | 0.00 | 93 | 1013.7 |
| 20260905053050 | 57 | 271 | 0.9 | 3.5 | 0.00 | 0.36 | 0.00 | 95 | 1013.6 |
| 20260905051605 | 56 | 236 | 1.7 | 8.7 | 0.00 | 0.36 | 0.00 | 96 | 1013.5 |
| 20260905050045 | 56 | 248 | 0.9 | 6.1 | 0.00 | 0.36 | 0.00 | 96 | 1013.4 |
| 20260905044552 | 56 | 269 | 2.6 | 7.8 | 0.00 | 0.36 | 0.00 | 96 | 1013.3 |
| 20260905043038 | 56 | 263 | 0.0 | 7.0 | 0.00 | 0.36 | 0.00 | 96 | 1013.2 |
| 20260905041535 | 56 | 272 | 0.9 | 3.5 | 0.00 | 0.36 | 0.00 | 96 | 1013.0 |
| 20260905040034 | 56 | 241 | 0.0 | 7.0 | 0.00 | 0.36 | 0.00 | 96 | 1012.9 |
| 20260905034535 | 56 | 163 | 0.9 | 3.5 | 0.00 | 0.36 | 0.00 | 96 | 1012.8 |
| 20260905033043 | 56 | 244 | 0.0 | 3.5 | 0.00 | 0.36 | 0.00 | 96 | 1012.6 |
| 20260905031527 | 57 | 219 | 0.0 | 7.0 | 0.00 | 0.36 | 0.00 | 96 | 1012.5 |
| 20260905030023 | 57 | 221 | 0.9 | 7.8 | 0.00 | 0.36 | 0.00 | 96 | 1012.3 |
| 20260905024521 | 57 | 250 | 0.0 | 3.5 | 0.00 | 0.36 | 0.00 | 96 | 1012.1 |
| 20260905023042 | 57 | 277 | 0.9 | 7.8 | 0.00 | 0.36 | 0.00 | 96 | 1012.0 |
| 20260905021518 | 57 | 231 | 0.0 | 2.6 | 0.00 | 0.36 | 0.00 | 96 | 1011.8 |
| 20260905020023 | 57 | 263 | 1.7 | 7.0 | 0.00 | 0.36 | 0.00 | 97 | 1011.8 |
| 20260905014514 | 57 | 261 | 0.0 | 3.5 | 0.00 | 0.36 | 0.00 | 97 | 1011.8 |
| 20260905013014 | 57 | 275 | 0.0 | 7.8 | 0.00 | 0.36 | 0.00 | 97 | 1011.6 |
| 20260905011512 | 58 | 261 | 0.9 | 3.5 | 0.00 | 0.36 | 0.00 | 96 | 1011.6 |
| 20260905010011 | 58 | 152 | 0.0 | 4.3 | 0.00 | 0.36 | 0.00 | 97 | 1011.6 |
| 20260905004514 | 58 | 252 | 0.9 | 6.1 | 0.00 | 0.36 | 0.00 | 97 | 1011.5 |
| 20260905003007 | 59 | 256 | 1.7 | 7.8 | 0.00 | 0.36 | 0.00 | 97 | 1011.4 |
| 20260905001515 | 59 | 186 | 0.0 | 5.2 | 0.00 | 0.36 | 0.00 | 97 | 1011.2 |
| 20260905000003 | 59 | 191 | 0.0 | 3.5 | 0.00 | 0.36 | 0.00 | 97 | 1011.1 |
| 20260904234502 | 59 | 277 | 0.0 | 3.5 | 0.00 | 0.36 | 0.00 | 97 | 1011.0 |
| 20260904233103 | 59 | 223 | 0.0 | 4.3 | 0.00 | 0.36 | 0.00 | 97 | 1011.0 |
| 20260904231603 | 59 | 252 | 0.0 | 3.5 | 0.00 | 0.36 | 0.00 | 97 | 1010.9 |
| 20260904230055 | 60 | 227 | 0.9 | 3.5 | 0.00 | 0.36 | 0.00 | 97 | 1010.7 |
| 20260904224602 | 60 | 189 | 0.9 | 2.6 | 0.00 | 0.36 | 0.00 | 97 | 1010.7 |
| 20260904223055 | 60 | 269 | 0.0 | 4.3 | 0.00 | 0.36 | 0.00 | 97 | 1010.4 |
| 20260904221549 | 60 | 244 | 0.0 | 3.5 | 0.00 | 0.36 | 0.00 | 97 | 1010.1 |
| 20260904220107 | 60 | 271 | 0.9 | 4.3 | 0.00 | 0.36 | 0.00 | 97 | 1009.7 |
| 20260904214544 | 60 | 298 | 0.0 | 3.5 | 0.00 | 0.36 | 0.36 | 97 | 1009.5 |
| 20260904213043 | 60 | 317 | 0.0 | 7.8 | 0.00 | 0.36 | 0.36 | 97 | 1009.1 |
| 20260904211551 | 60 | 276 | 0.0 | 2.6 | 0.00 | 0.36 | 0.36 | 97 | 1008.9 |
| 20260904210047 | 61 | 286 | 0.9 | 3.5 | 0.00 | 0.36 | 0.36 | 97 | 1008.9 |
| 20260904204547 | 61 | 188 | 0.9 | 8.7 | 0.00 | 0.36 | 0.36 | 97 | 1008.7 |
| 20260904203044 | 60 | 248 | 0.9 | 4.3 | 0.00 | 0.36 | 0.36 | 97 | 1008.5 |
| 20260904201539 | 60 | 7 | 0.0 | 4.3 | 0.00 | 0.36 | 0.36 | 97 | 1008.2 |
| 20260904200040 | 61 | 163 | 0.0 | 5.2 | 0.00 | 0.36 | 0.36 | 97 | 1008.1 |
| 20260904194550 | 61 | 254 | 1.7 | 4.3 | 0.00 | 0.36 | 0.36 | 97 | 1008.2 |
| 20260904193041 | 61 | 14 | 0.0 | 6.1 | 0.00 | 0.36 | 0.36 | 96 | 1008.1 |
| 20260904191542 | 60 | 269 | 0.0 | 7.8 | 0.00 | 0.36 | 0.36 | 96 | 1007.9 |
| 20260904190035 | 60 | 193 | 0.9 | 7.0 | 0.03 | 0.36 | 0.36 | 96 | 1007.8 |
| 20260904184535 | 60 | 198 | 0.9 | 2.6 | 0.06 | 0.36 | 0.36 | 96 | 1008.0 |
| 20260904183038 | 61 | 287 | 1.7 | 6.1 | 0.06 | 0.36 | 0.36 | 95 | 1007.5 |
| 20260904181532 | 61 | 277 | 0.9 | 7.8 | 0.08 | 0.36 | 0.36 | 95 | 1007.4 |
| 20260904180030 | 61 | 226 | 1.7 | 5.2 | 0.06 | 0.33 | 0.33 | 95 | 1007.6 |